Location: Bailey Volunteer Fire Department
(33.4359°N, 96.1680°W)
Time: 17:25:10
(UTC+00:00)

Cosmos 1484 Rocket - Pass Details

Date: 13 December 2025
Orbit: 439 x 472 km, 97.6° (Epoch: 14 January)

Event Time Altitude Azimuth Distance (km) Brightness Sun altitude
Rises 12:43:01 0° 356° (N) 2,449 5.9 -7.9°
Reaches altitude 10° 12:45:18 10° 342° (NNW) 1,568 4.8 -7.4°
Maximum altitude 12:48:01 23° 288° (WNW) 979 3.5 -6.9°
Drops below altitude 10° 12:50:43 10° 233° (SW) 1,550 4.8 -6.4°
Sets 12:52:58 0° 218° (SW) 2,412 5.9 -5.9°
